KM5RF Weather Reports


Display with metric or nautical units.
time (UTC)temp
F
wind
direction
speed
MPH
gust
MPH
rain 1hr
in
rain 24hr
in
rain mn
in
humidity
%
barometer
mb
20260504081511 59 157 6.0 12.0 0.00 0.00 0.00 76 1014.4
20260504044511 64 198 4.0 11.0 0.00 0.00 0.00 68 1016.4
20260504043016 64 181 5.0 12.0 0.00 0.00 0.00 68 1016.4
20260504041521 65 183 7.0 10.0 0.00 0.00 0.00 67 1016.5
20260504040029 65 175 4.0 9.0 0.00 0.00 0.00 67 1016.5
20260504034539 65 179 5.0 10.0 0.00 0.00 0.00 67 1016.5
20260504033015 65 189 4.0 8.0 0.00 0.00 0.00 67 1016.5
20260504031520 65 178 3.0 6.0 0.00 0.00 0.00 66 1016.5
20260504030017 65 188 3.0 6.0 0.00 0.00 0.00 65 1016.3
20260504030005 65 165 3.0 6.0 0.00 0.00 0.00 65 1016.3
20260504024505 66 182 3.0 8.0 0.00 0.00 0.00 63 1016.3
20260504023004 67 175 4.0 8.0 0.00 0.00 0.00 62 1016.3
20260504021505 67 182 4.0 8.0 0.00 0.00 0.00 61 1016.3
20260504020004 68 173 4.0 8.0 0.00 0.00 0.00 60 1016.2
20260504014515 68 169 3.0 10.0 0.00 0.00 0.00 60 1016.0
20260504013009 69 175 5.0 9.0 0.00 0.00 0.00 59 1015.9
20260504011504 70 136 4.0 8.0 0.00 0.00 0.00 57 1015.9
20260504010006 71 161 4.0 12.0 0.00 0.00 0.00 55 1016.0
20260504004504 72 190 6.0 15.0 0.00 0.00 0.00 53 1016.0
20260504003004 74 171 6.0 15.0 0.00 0.00 0.00 51 1016.1
20260504001508 75 182 7.0 14.0 0.00 0.00 0.00 49 1016.1
20260504000007 76 198 8.0 16.0 0.00 0.00 0.00 49 1016.1
20260503234524 76 172 7.0 18.0 0.00 0.00 0.00 49 1016.3
20260503233024 77 175 10.0 16.0 0.00 0.00 0.00 46 1016.3
20260503231541 77 187 9.0 19.0 0.00 0.00 0.00 47 1016.5
20260503230028 78 161 7.0 15.0 0.00 0.00 0.00 45 1016.6
20260503224515 78 152 5.0 11.0 0.00 0.00 0.00 46 1016.7
20260503223024 77 185 8.0 18.0 0.00 0.00 0.00 44 1016.7
20260503221527 79 194 8.0 18.0 0.00 0.00 0.00 45 1016.8
20260503220035 79 157 6.0 17.0 0.00 0.00 0.00 46 1016.9
20260503214531 80 175 7.0 18.0 0.00 0.00 0.00 46 1017.1
20260503213019 80 170 8.0 16.0 0.00 0.00 0.00 46 1017.3
20260503211523 79 197 4.0 15.0 0.00 0.00 0.00 45 1017.6
20260503210028 79 172 8.0 16.0 0.00 0.00 0.00 46 1017.7
20260503204508 79 215 6.0 16.0 0.00 0.00 0.00 46 1018.1
20260503203021 79 259 5.0 13.0 0.00 0.00 0.00 45 1018.4
20260503201520 79 196 3.0 11.0 0.00 0.00 0.00 44 1018.7
20260503200016 78 164 7.0 14.0 0.00 0.00 0.00 43 1018.8
20260503194509 78 197 5.0 14.0 0.00 0.00 0.00 46 1019.1
20260503193012 78 216 5.0 17.0 0.00 0.00 0.00 49 1019.4
20260503191516 78 209 7.0 15.0 0.00 0.00 0.00 47 1019.7
20260503190016 77 190 6.0 15.0 0.00 0.00 0.00 47 1019.8
20260503184518 78 227 6.0 14.0 0.00 0.00 0.00 48 1020.1
20260503183007 77 207 6.0 18.0 0.00 0.00 0.00 47 1020.3
20260503181513 77 198 3.0 13.0 0.00 0.00 0.00 47 1020.5
20260503180027 77 174 7.0 14.0 0.00 0.00 0.00 47 1020.8
20260503174523 76 180 7.0 12.0 0.00 0.00 0.00 47 1021.1
20260503173022 76 185 7.0 13.0 0.00 0.00 0.00 51 1021.3
20260503171516 75 206 7.0 14.0 0.00 0.00 0.00 53 1021.5